Regional Weather Roundup
Issued by NWS

Home | Current Version | Previous Version | Graphics & Text | Print | Product List | Glossary On
Versions: 1 2 3 4 5 6 7 8 9 10 11 12 13 14 15 16 17 18 19 20 21 22 23 24 25 26 27 28 29 30 31 32 33 34 35 36 37 38 39 40 41 42 43 44 45 46 47 48 49 50
000
ASUS43 KFSD 022202
RWRSD

WEATHER ROUNDUP FOR SOUTH DAKOTA
NATIONAL WEATHER SERVICE SIOUX FALLS SD
500 PM CDT TUE JUN 02 2015

NOTE: "FAIR" INDICATES FEW OR NO CLOUDS BELOW 12,000 FEET WITH NO
SIGNIFICANT WEATHER AND/OR OBSTRUCTIONS TO VISIBILITY.


SDZ001>005-009-010-012>017-022300-
NORTHWEST AND NORTH CENTRAL SOUTH DAKOTA

CITY           SKY/WX    TMP DP  RH WIND       PRES   REMARKS
BUFFALO          N/A     78  54  43 NW20      29.74F
FAITH            N/A     82  55  39 NW17G24   29.75F
MOBRIDGE       PTSUNNY   88  63  43 NW10      29.67S
$$

SDZ012>016-024>037-041>051-057-063-072>074-022300-
SOUTHWEST AND SOUTH CENTRAL SOUTH DAKOTA

CITY           SKY/WX    TMP DP  RH WIND       PRES   REMARKS
RAPID CTY ARPT PTSUNNY   79  57  46 N16       29.81F
PIERRE         MOSUNNY   88  56  33 W12       29.69S
CUSTER         PTSUNNY   71  56  58 E14       29.93F
ELLSWORTH AFB  PTSUNNY   79  56  45 N12       29.81F
PHILIP         MOSUNNY   86  59  39 NW10      29.74F
PINE RIDGE     MOSUNNY   83  56  39 SE3       29.78F
WINNER         FAIR      92  60  34 S17       29.74F
$$

SDZ004>011-016>023-039-040-022300-
NORTHEAST SOUTH DAKOTA

CITY           SKY/WX    TMP DP  RH WIND       PRES   REMARKS
ABERDEEN       PTSUNNY   87  63  44 S21G28    29.70F
WATERTOWN      SUNNY     80  61  52 S25G33    29.76F
BROOKINGS      SUNNY     79  63  57 S25G32    29.81F
SISSETON         N/A     84  61  45 S23       29.73F
$$

SDZ017-020-022-023-036>040-048>070-022300-
SOUTHEAST SOUTH DAKOTA

CITY           SKY/WX    TMP DP  RH WIND       PRES   REMARKS
SIOUX FALLS    PTSUNNY   78  62  57 S17G26    29.83F
HURON          MOSUNNY   85  61  44 S17G32    29.73F
CHAMBERLAIN    MOSUNNY   87  64  46 S18       29.72F
MITCHELL       SUNNY     85  62  46 S15G30    29.76F
YANKTON        SUNNY     81  63  54 SE18G29   29.80F
$$

ABBREVIATIONS USED IN REMARKS
   TC - TEMPERATURE IN CELSIUS
  WCI - WIND CHILL INDEX
   HX - HEAT INDEX
  VSB - VISIBILITY



USA.gov is the U.S. government's official web portal to all federal, state and local government web resources and services.